QPF
0.00 0.00 0.00 0.00 0.00 0.00 0.01 0.01 0.01 0.01 0.01 0.00 0.00 0.03 0.03 0.01 0.01 0.00 0.00 0.01 0.01 0.02 0.04 0.04 0.03 0.03 0.03 0.06 0.09 0.10 0.10 0.08 0.09 0.10 0.09 0.08 0.10 0.11 0.09 0.08 0.07 0.06 0.06 0.05
0.00 0.00 0.00 0.00 0.00 0.00 0.00 0.00 0.00 0.01 0.00 0.00 0.00 0.00 0.01 0.02 0.01 0.00 0.00 0.01 0.01 0.02 0.03 0.04 0.03 0.02 0.03 0.05 0.08 0.09 0.09 0.08 0.09 0.09 0.10 0.09 0.10 0.09 0.08 0.08 0.07 0.05 0.04 0.04
0.00 0.00 0.00 0.00 0.00 0.00 0.00 0.00 0.00 0.01 0.01 0.01 0.00 0.01 0.01 0.03 0.02 0.01 0.01 0.01 0.01 0.01 0.02 0.02 0.03 0.02 0.03 0.05 0.07 0.07 0.08 0.09 0.10 0.09 0.08 0.08 0.09 0.09 0.08 0.07 0.05 0.04 0.03 0.03
0.00 0.00 0.00 0.00 0.00 0.00 0.00 0.00 0.00 0.00 0.01 0.01 0.01 0.03 0.03 0.03 0.03 0.01 0.01 0.01 0.01 0.01 0.02 0.01 0.02 0.02 0.02 0.04 0.07 0.09 0.08 0.08 0.08 0.08 0.07 0.08 0.07 0.08 0.06 0.05 0.05 0.03 0.03 0.02
0.00 0.00 0.00 0.00 0.00 0.00 0.00 0.00 0.00 0.00 0.00 0.01 0.02 0.03 0.03 0.03 0.04 0.02 0.01 0.01 0.01 0.02 0.02 0.01 0.02 0.02 0.02 0.03 0.05 0.09 0.10 0.09 0.07 0.08 0.09 0.09 0.09 0.07 0.06 0.07 0.08 0.07 0.04 0.02
0.00 0.00 0.00 0.00 0.00 0.00 0.00 0.00 0.00 0.00 0.01 0.03 0.02 0.02 0.03 0.03 0.05 0.02 0.02 0.02 0.01 0.01 0.01 0.01 0.02 0.03 0.03 0.03 0.04 0.06 0.08 0.09 0.08 0.08 0.08 0.08 0.07 0.06 0.05 0.07 0.08 0.06 0.04 0.02
0.00 0.00 0.00 0.00 0.00 0.00 0.00 0.00 0.03 0.05 0.07 0.07 0.04 0.02 0.02 0.01 0.01 0.01 0.01 0.01 0.02 0.02 0.02 0.01 0.02 0.02 0.02 0.02 0.04 0.06 0.06 0.06 0.07 0.08 0.08 0.08 0.08 0.07 0.06 0.05 0.06 0.05 0.03 0.02
0.00 0.00 0.00 0.00 0.00 0.00 0.00 0.00 0.04 0.09 0.11 0.08 0.07 0.04 0.04 0.01 0.00 0.00 0.00 0.01 0.03 0.03 0.02 0.02 0.01 0.01 0.02 0.02 0.03 0.05 0.05 0.06 0.06 0.07 0.09 0.09 0.09 0.06 0.05 0.05 0.04 0.04 0.03 0.02
0.00 0.00 0.00 0.00 0.00 0.00 0.00 0.00 0.01 0.02 0.04 0.07 0.08 0.07 0.07 0.02 0.01 0.00 0.01 0.02 0.02 0.03 0.05 0.03 0.02 0.02 0.02 0.03 0.03 0.04 0.04 0.05 0.04 0.05 0.06 0.06 0.06 0.05 0.05 0.04 0.04 0.04 0.04 0.03
0.00 0.00 0.00 0.00 0.00 0.00 0.00 0.01 0.02 0.04 0.06 0.07 0.06 0.09 0.10 0.04 0.02 0.00 0.01 0.03 0.03 0.03 0.06 0.06 0.03 0.02 0.02 0.03 0.04 0.04 0.04 0.05 0.04 0.04 0.03 0.03 0.04 0.05 0.05 0.05 0.04 0.04 0.05 0.04
0.00 0.00 0.00 0.00 0.00 0.00 0.00 0.01 0.02 0.02 0.03 0.07 0.09 0.12 0.15 0.07 0.03 0.01 0.01 0.05 0.05 0.02 0.05 0.07 0.04 0.02 0.02 0.02 0.03 0.03 0.04 0.05 0.05 0.04 0.04 0.04 0.03 0.04 0.05 0.05 0.04 0.05 0.05 0.04
0.00 0.00 0.00 0.00 0.00 0.00 0.00 0.01 0.01 0.03 0.03 0.04 0.08 0.09 0.05 0.03 0.01 0.01 0.01 0.06 0.07 0.03 0.02 0.02 0.02 0.02 0.02 0.02 0.02 0.02 0.03 0.03 0.03 0.03 0.03 0.04 0.04 0.04 0.05 0.05 0.04 0.05 0.05 0.04
0.00 0.01 0.02 0.03 0.02 0.01 0.00 0.00 0.00 0.00 0.01 0.03 0.08 0.09 0.04 0.02 0.02 0.03 0.03 0.07 0.05 0.08 0.06 0.01 0.01 0.01 0.01 0.01 0.02 0.02 0.02 0.02 0.02 0.02 0.02 0.03 0.04 0.04 0.04 0.04 0.04 0.04 0.04 0.04
0.00 0.01 0.02 0.04 0.05 0.04 0.02 0.01 0.00 0.00 0.02 0.03 0.03 0.07 0.08 0.07 0.07 0.05 0.04 0.06 0.07 0.05 0.02 0.01 0.01 0.01 0.01 0.01 0.01 0.01 0.01 0.01 0.01 0.02 0.02 0.04 0.04 0.04 0.04 0.05 0.04 0.03 0.03 0.03
0.00 0.00 0.01 0.02 0.03 0.03 0.04 0.02 0.01 0.01 0.01 0.02 0.03 0.05 0.11 0.07 0.08 0.08 0.04 0.02 0.04 0.03 0.02 0.02 0.01 0.01 0.01 0.01 0.01 0.01 0.01 0.01 0.01 0.01 0.02 0.04 0.05 0.05 0.05 0.04 0.04 0.04 0.04 0.03
0.00 0.00 0.00 0.01 0.02 0.02 0.03 0.01 0.01 0.01 0.01 0.01 0.02 0.05 0.11 0.10 0.06 0.04 0.02 0.01 0.02 0.03 0.03 0.02 0.01 0.00 0.01 0.01 0.01 0.01 0.01 0.00 0.01 0.02 0.02 0.03 0.04 0.05 0.06 0.05 0.03 0.04 0.04 0.03
0.00 0.00 0.01 0.01 0.01 0.02 0.03 0.03 0.01 0.01 0.01 0.01 0.05 0.08 0.06 0.07 0.04 0.01 0.01 0.01 0.01 0.03 0.03 0.02 0.02 0.01 0.01 0.01 0.01 0.01 0.01 0.01 0.02 0.03 0.03 0.03 0.06 0.06 0.06 0.05 0.03 0.02 0.03 0.03
0.00 0.01 0.02 0.03 0.04 0.04 0.03 0.03 0.02 0.01 0.01 0.01 0.05 0.05 0.05 0.05 0.04 0.02 0.01 0.01 0.00 0.01 0.01 0.02 0.02 0.02 0.01 0.01 0.01 0.01 0.01 0.01 0.03 0.05 0.04 0.04 0.06 0.07 0.05 0.03 0.02 0.02 0.02 0.02
0.00 0.02 0.02 0.04 0.06 0.05 0.05 0.02 0.03 0.04 0.03 0.01 0.02 0.04 0.06 0.05 0.04 0.04 0.02 0.00 0.00 0.00 0.00 0.01 0.01 0.01 0.02 0.01 0.02 0.02 0.01 0.01 0.01 0.03 0.03 0.02 0.04 0.05 0.05 0.03 0.03 0.03 0.02 0.01
0.02 0.03 0.05 0.05 0.06 0.07 0.06 0.02 0.03 0.06 0.06 0.03 0.02 0.07 0.10 0.06 0.10 0.08 0.02 0.00 0.00 0.00 0.00 0.01 0.01 0.00 0.01 0.02 0.03 0.02 0.01 0.01 0.01 0.01 0.01 0.02 0.02 0.03 0.03 0.03 0.04 0.04 0.02 0.02
0.06 0.07 0.07 0.06 0.07 0.08 0.05 0.02 0.03 0.08 0.11 0.05 0.03 0.05 0.06 0.06 0.08 0.07 0.04 0.02 0.01 0.01 0.01 0.01 0.01 0.01 0.01 0.02 0.02 0.02 0.02 0.01 0.00 0.00 0.01 0.02 0.02 0.01 0.02 0.03 0.03 0.02 0.02 0.02
0.05 0.06 0.07 0.07 0.09 0.10 0.05 0.03 0.07 0.08 0.05 0.03 0.04 0.03 0.03 0.03 0.04 0.05 0.04 0.03 0.02 0.02 0.03 0.05 0.03 0.02 0.03 0.03 0.03 0.03 0.04 0.03 0.02 0.01 0.01 0.02 0.02 0.02 0.01 0.01 0.02 0.02 0.02 0.02
0.05 0.07 0.09 0.11 0.12 0.11 0.07 0.06 0.06 0.03 0.02 0.03 0.03 0.04 0.03 0.02 0.02 0.02 0.03 0.03 0.03 0.03 0.04 0.08 0.05 0.03 0.03 0.03 0.03 0.04 0.04 0.04 0.03 0.03 0.03 0.02 0.02 0.02 0.02 0.02 0.02 0.02 0.02 0.02
0.05 0.03 0.07 0.09 0.11 0.11 0.09 0.06 0.04 0.02 0.02 0.03 0.03 0.03 0.03 0.03 0.04 0.03 0.03 0.04 0.04 0.04 0.04 0.05 0.03 0.02 0.03 0.04 0.03 0.03 0.04 0.05 0.05 0.04 0.04 0.03 0.02 0.02 0.03 0.03 0.03 0.02 0.02 0.02
0.04 0.05 0.09 0.10 0.10 0.10 0.09 0.06 0.03 0.01 0.02 0.03 0.02 0.02 0.02 0.04 0.06 0.04 0.04 0.04 0.04 0.05 0.05 0.05 0.05 0.05 0.05 0.05 0.04 0.04 0.05 0.06 0.06 0.06 0.05 0.03 0.02 0.02 0.03 0.04 0.04 0.03 0.03 0.03
0.03 0.06 0.11 0.12 0.10 0.09 0.07 0.05 0.03 0.01 0.02 0.03 0.03 0.03 0.05 0.06 0.04 0.04 0.04 0.04 0.04 0.04 0.04 0.06 0.06 0.07 0.06 0.07 0.07 0.07 0.08 0.07 0.08 0.08 0.06 0.05 0.04 0.04 0.03 0.03 0.03 0.03 0.03 0.03
MSLP
1003.91 1004.37 1004.65 1004.79 1004.85 1004.90 1004.99 1005.16 1005.38 1005.61 1005.81 1005.92 1005.91 1005.80 1005.62 1005.44 1005.36 1005.42 1005.68 1006.16 1006.80 1007.56 1008.35 1009.08 1009.68 1010.13 1010.43 1010.60 1010.71 1010.82 1010.98 1011.23 1011.57 1012.00 1012.48 1012.96 1013.42 1013.81 1014.13 1014.40 1014.63 1014.84 1015.07 1015.32
1004.16 1004.43 1004.50 1004.47 1004.42 1004.44 1004.60 1004.88 1005.27 1005.67 1006.00 1006.18 1006.18 1006.01 1005.71 1005.39 1005.15 1005.08 1005.27 1005.72 1006.39 1007.22 1008.09 1008.91 1009.59 1010.08 1010.38 1010.55 1010.63 1010.72 1010.88 1011.16 1011.56 1012.06 1012.61 1013.16 1013.66 1014.07 1014.38 1014.61 1014.78 1014.94 1015.12 1015.35
1004.19 1004.24 1004.10 1003.91 1003.78 1003.81 1004.05 1004.50 1005.08 1005.67 1006.16 1006.44 1006.45 1006.21 1005.79 1005.29 1004.87 1004.65 1004.72 1005.10 1005.77 1006.64 1007.59 1008.50 1009.25 1009.81 1010.16 1010.35 1010.46 1010.56 1010.76 1011.09 1011.55 1012.13 1012.77 1013.39 1013.94 1014.37 1014.67 1014.87 1014.99 1015.10 1015.24 1015.43
1004.02 1003.86 1003.55 1003.24 1003.07 1003.15 1003.52 1004.16 1004.95 1005.75 1006.40 1006.78 1006.81 1006.49 1005.92 1005.24 1004.60 1004.18 1004.09 1004.37 1004.99 1005.86 1006.86 1007.85 1008.70 1009.34 1009.77 1010.03 1010.19 1010.35 1010.60 1010.99 1011.53 1012.19 1012.90 1013.59 1014.19 1014.65 1014.96 1015.14 1015.24 1015.31 1015.41 1015.57
1003.71 1003.39 1002.96 1002.58 1002.42 1002.60 1003.13 1003.98 1004.99 1006.00 1006.81 1007.27 1007.29 1006.90 1006.17 1005.27 1004.40 1003.75 1003.46 1003.59 1004.12 1004.97 1006.00 1007.05 1007.99 1008.73 1009.26 1009.61 1009.85 1010.09 1010.40 1010.86 1011.46 1012.18 1012.96 1013.71 1014.36 1014.85 1015.18 1015.36 1015.45 1015.51 1015.59 1015.73
1003.31 1002.89 1002.40 1002.03 1001.94 1002.25 1002.96 1004.01 1005.24 1006.43 1007.37 1007.89 1007.90 1007.41 1006.52 1005.40 1004.30 1003.41 1002.90 1002.86 1003.27 1004.06 1005.09 1006.19 1007.21 1008.06 1008.70 1009.15 1009.49 1009.80 1010.17 1010.68 1011.32 1012.08 1012.90 1013.68 1014.37 1014.90 1015.26 1015.46 1015.57 1015.63 1015.72 1015.86
1002.83 1002.39 1001.92 1001.62 1001.64 1002.10 1002.99 1004.23 1005.63 1006.96 1007.99 1008.54 1008.52 1007.94 1006.90 1005.60 1004.28 1003.17 1002.47 1002.25 1002.54 1003.25 1004.26 1005.39 1006.48 1007.42 1008.16 1008.71 1009.13 1009.51 1009.93 1010.46 1011.12 1011.88 1012.70 1013.50 1014.20 1014.75 1015.14 1015.38 1015.52 1015.61 1015.72 1015.89
1002.27 1001.87 1001.49 1001.30 1001.47 1002.07 1003.11 1004.49 1006.00 1007.41 1008.49 1009.05 1009.00 1008.34 1007.20 1005.76 1004.29 1003.02 1002.16 1001.80 1001.98 1002.62 1003.60 1004.73 1005.87 1006.88 1007.70 1008.34 1008.83 1009.25 1009.70 1010.22 1010.86 1011.59 1012.37 1013.15 1013.84 1014.40 1014.81 1015.09 1015.28 1015.42 1015.57 1015.78
1001.61 1001.31 1001.05 1001.01 1001.32 1002.05 1003.19 1004.64 1006.19 1007.61 1008.68 1009.22 1009.14 1008.44 1007.25 1005.76 1004.22 1002.88 1001.94 1001.50 1001.61 1002.19 1003.13 1004.26 1005.42 1006.48 1007.36 1008.05 1008.59 1009.04 1009.48 1009.98 1010.56 1011.23 1011.95 1012.67 1013.33 1013.89 1014.32 1014.63 1014.86 1015.05 1015.26 1015.51
1000.84 1000.68 1000.58 1000.68 1001.11 1001.92 1003.10 1004.53 1006.04 1007.40 1008.40 1008.89 1008.79 1008.10 1006.94 1005.49 1004.00 1002.69 1001.75 1001.31 1001.39 1001.94 1002.85 1003.97 1005.13 1006.20 1007.11 1007.84 1008.40 1008.86 1009.28 1009.74 1010.26 1010.85 1011.49 1012.14 1012.75 1013.28 1013.72 1014.06 1014.33 1014.58 1014.83 1015.13
1000.00 1000.00 1000.07 1000.31 1000.82 1001.65 1002.78 1004.11 1005.48 1006.70 1007.59 1008.01 1007.90 1007.26 1006.20 1004.89 1003.54 1002.37 1001.54 1001.16 1001.27 1001.82 1002.71 1003.80 1004.93 1005.99 1006.90 1007.64 1008.21 1008.67 1009.08 1009.49 1009.95 1010.47 1011.04 1011.61 1012.17 1012.67 1013.10 1013.46 1013.77 1014.05 1014.36 1014.69
999.20 999.38 999.60 999.95 1000.50 1001.30 1002.30 1003.45 1004.61 1005.62 1006.35 1006.68 1006.56 1006.01 1005.11 1004.00 1002.88 1001.93 1001.28 1001.02 1001.20 1001.76 1002.62 1003.66 1004.74 1005.76 1006.65 1007.38 1007.96 1008.42 1008.82 1009.21 1009.64 1010.10 1010.60 1011.12 1011.63 1012.11 1012.53 1012.90 1013.24 1013.56 1013.89 1014.26
998.58 998.92 999.28 999.71 1000.27 1000.97 1001.80 1002.71 1003.60 1004.36 1004.89 1005.12 1004.99 1004.54 1003.82 1002.97 1002.12 1001.42 1000.98 1000.88 1001.13 1001.70 1002.52 1003.49 1004.49 1005.45 1006.29 1007.00 1007.57 1008.04 1008.45 1008.85 1009.27 1009.71 1010.19 1010.68 1011.16 1011.61 1012.04 1012.42 1012.78 1013.13 1013.49 1013.87
998.25 998.75 999.23 999.73 1000.26 1000.84 1001.46 1002.09 1002.69 1003.17 1003.49 1003.59 1003.45 1003.09 1002.57 1001.97 1001.40 1000.96 1000.73 1000.77 1001.08 1001.64 1002.39 1003.25 1004.14 1005.00 1005.77 1006.44 1007.00 1007.50 1007.94 1008.37 1008.81 1009.27 1009.75 1010.24 1010.72 1011.17 1011.60 1012.00 1012.38 1012.75 1013.13 1013.53
998.32 998.95 999.54 1000.07 1000.56 1001.00 1001.41 1001.77 1002.07 1002.28 1002.39 1002.36 1002.20 1001.92 1001.57 1001.20 1000.87 1000.66 1000.61 1000.75 1001.09 1001.60 1002.24 1002.96 1003.70 1004.43 1005.10 1005.72 1006.27 1006.78 1007.27 1007.75 1008.24 1008.75 1009.26 1009.77 1010.27 1010.74 1011.18 1011.60 1012.00 1012.40 1012.79 1013.20
998.77 999.51 1000.17 1000.73 1001.17 1001.49 1001.70 1001.82 1001.86 1001.83 1001.74 1001.60 1001.41 1001.20 1000.98 1000.79 1000.66 1000.62 1000.69 1000.89 1001.20 1001.61 1002.10 1002.65 1003.22 1003.79 1004.35 1004.89 1005.42 1005.94 1006.47 1007.02 1007.57 1008.13 1008.69 1009.24 1009.77 1010.26 1010.73 1011.16 1011.59 1012.00 1012.41 1012.83
999.52 1000.32 1001.02 1001.58 1001.97 1002.19 1002.25 1002.18 1002.02 1001.80 1001.57 1001.34 1001.13 1000.97 1000.86 1000.80 1000.81 1000.88 1001.01 1001.19 1001.43 1001.72 1002.04 1002.39 1002.76 1003.16 1003.59 1004.04 1004.54 1005.06 1005.63 1006.22 1006.84 1007.45 1008.06 1008.64 1009.20 1009.71 1010.19 1010.65 1011.08 1011.51 1011.94 1012.37
1000.41 1001.20 1001.89 1002.43 1002.77 1002.91 1002.87 1002.68 1002.40 1002.08 1001.76 1001.49 1001.29 1001.17 1001.13 1001.16 1001.25 1001.37 1001.51 1001.65 1001.79 1001.92 1002.06 1002.22 1002.40 1002.63 1002.93 1003.29 1003.73 1004.25 1004.82 1005.45 1006.09 1006.74 1007.38 1007.99 1008.55 1009.08 1009.57 1010.03 1010.48 1010.92 1011.35 1011.80
1001.22 1001.94 1002.57 1003.06 1003.35 1003.44 1003.35 1003.11 1002.78 1002.42 1002.09 1001.83 1001.66 1001.60 1001.62 1001.71 1001.84 1001.98 1002.09 1002.17 1002.20 1002.19 1002.17 1002.15 1002.17 1002.25 1002.43 1002.70 1003.08 1003.57 1004.13 1004.76 1005.41 1006.07 1006.70 1007.31 1007.87 1008.39 1008.87 1009.33 1009.78 1010.22 1010.66 1011.11
1001.82 1002.40 1002.92 1003.31 1003.55 1003.60 1003.50 1003.27 1002.96 1002.64 1002.36 1002.15 1002.04 1002.04 1002.12 1002.26 1002.41 1002.54 1002.62 1002.64 1002.58 1002.46 1002.31 1002.16 1002.05 1002.02 1002.10 1002.30 1002.62 1003.06 1003.59 1004.18 1004.81 1005.44 1006.05 1006.63 1007.16 1007.66 1008.12 1008.57 1009.00 1009.44 1009.89 1010.34
1002.14 1002.53 1002.90 1003.18 1003.34 1003.37 1003.28 1003.09 1002.85 1002.61 1002.42 1002.30 1002.27 1002.34 1002.47 1002.64 1002.80 1002.93 1002.98 1002.95 1002.83 1002.64 1002.41 1002.18 1002.00 1001.89 1001.90 1002.04 1002.31 1002.69 1003.17 1003.71 1004.28 1004.85 1005.41 1005.94 1006.44 1006.90 1007.34 1007.76 1008.19 1008.62 1009.07 1009.53
1002.25 1002.43 1002.61 1002.76 1002.84 1002.84 1002.77 1002.64 1002.49 1002.35 1002.26 1002.24 1002.30 1002.43 1002.60 1002.80 1002.97 1003.08 1003.11 1003.05 1002.90 1002.67 1002.41 1002.15 1001.93 1001.80 1001.76 1001.85 1002.06 1002.37 1002.78 1003.24 1003.74 1004.24 1004.73 1005.20 1005.65 1006.08 1006.49 1006.91 1007.33 1007.77 1008.22 1008.69
1002.30 1002.29 1002.29 1002.30 1002.30 1002.26 1002.20 1002.12 1002.05 1002.00 1002.01 1002.08 1002.20 1002.38 1002.58 1002.78 1002.94 1003.04 1003.05 1002.96 1002.80 1002.57 1002.30 1002.04 1001.81 1001.65 1001.59 1001.63 1001.77 1002.00 1002.32 1002.69 1003.09 1003.50 1003.92 1004.33 1004.73 1005.14 1005.55 1005.97 1006.41 1006.87 1007.35 1007.84
1002.52 1002.34 1002.20 1002.09 1001.99 1001.91 1001.85 1001.80 1001.78 1001.81 1001.88 1002.00 1002.16 1002.34 1002.54 1002.72 1002.84 1002.91 1002.89 1002.79 1002.61 1002.37 1002.11 1001.84 1001.61 1001.43 1001.32 1001.29 1001.35 1001.48 1001.69 1001.94 1002.23 1002.55 1002.89 1003.24 1003.63 1004.03 1004.46 1004.92 1005.40 1005.90 1006.43 1006.96
1003.09 1002.81 1002.56 1002.36 1002.19 1002.06 1001.97 1001.93 1001.93 1001.98 1002.08 1002.20 1002.36 1002.52 1002.68 1002.80 1002.87 1002.87 1002.80 1002.66 1002.45 1002.20 1001.92 1001.63 1001.36 1001.12 1000.94 1000.82 1000.76 1000.76 1000.83 1000.94 1001.11 1001.33 1001.60 1001.92 1002.29 1002.72 1003.20 1003.72 1004.28 1004.86 1005.45 1006.04
1004.13 1003.82 1003.52 1003.25 1003.03 1002.85 1002.73 1002.66 1002.65 1002.69 1002.76 1002.87 1002.98 1003.08 1003.17 1003.21 1003.19 1003.11 1002.97 1002.76 1002.49 1002.18 1001.84 1001.49 1001.14 1000.81 1000.51 1000.25 1000.03 999.87 999.77 999.73 999.77 999.88 1000.08 1000.38 1000.76 1001.24 1001.79 1002.41 1003.07 1003.75 1004.44 1005.12
Thickness
5796 5786 5782 5794 5805 5804 5801 5797 5795 5805 5823 5814 5806 5802 5807 5809 5806 5804 5800 5796 5790 5787 5787 5785 5782 5779 5773 5766 5761 5757 5754 5751 5748 5745 5743 5741 5740 5741 5742 5741 5740 5739 5739 5739
5783 5780 5798 5810 5813 5810 5802 5795 5797 5809 5823 5815 5806 5802 5809 5809 5807 5806 5803 5797 5792 5786 5783 5781 5778 5775 5770 5764 5760 5756 5752 5750 5747 5745 5744 5742 5741 5740 5740 5739 5738 5737 5737 5737
5780 5795 5810 5806 5804 5801 5800 5798 5800 5800 5810 5814 5804 5789 5795 5804 5810 5809 5807 5802 5796 5789 5782 5778 5775 5772 5768 5763 5759 5757 5753 5749 5747 5745 5743 5741 5739 5738 5736 5734 5734 5735 5735 5735
5789 5806 5808 5802 5799 5801 5792 5810 5808 5803 5793 5790 5792 5764 5778 5792 5797 5802 5802 5801 5796 5791 5785 5779 5775 5770 5767 5764 5761 5757 5752 5748 5746 5744 5742 5738 5735 5733 5734 5734 5733 5733 5733 5733
5788 5801 5802 5796 5802 5807 5804 5815 5810 5804 5794 5786 5784 5768 5773 5791 5786 5792 5799 5800 5799 5794 5787 5780 5775 5771 5767 5764 5760 5755 5751 5747 5745 5743 5741 5739 5737 5736 5735 5734 5731 5731 5731 5731
5799 5814 5813 5810 5815 5815 5814 5808 5803 5798 5786 5761 5773 5766 5767 5786 5789 5795 5801 5802 5800 5795 5790 5783 5777 5771 5767 5763 5759 5754 5749 5745 5743 5742 5740 5738 5737 5736 5733 5731 5728 5729 5729 5730
5783 5800 5815 5818 5803 5807 5803 5783 5760 5751 5745 5747 5769 5767 5774 5800 5808 5807 5805 5804 5801 5796 5790 5782 5775 5768 5764 5760 5757 5753 5748 5743 5742 5740 5739 5738 5737 5736 5733 5730 5729 5729 5729 5729
5766 5774 5802 5810 5800 5793 5793 5784 5753 5732 5727 5734 5747 5752 5778 5808 5816 5818 5815 5810 5802 5795 5790 5784 5777 5770 5764 5760 5756 5752 5747 5743 5742 5740 5738 5738 5737 5735 5734 5733 5732 5731 5731 5731
5773 5775 5807 5813 5813 5803 5787 5784 5790 5765 5752 5736 5740 5755 5779 5799 5805 5808 5805 5803 5797 5793 5789 5784 5777 5771 5765 5760 5756 5753 5748 5744 5742 5740 5738 5737 5736 5736 5735 5733 5733 5733 5732 5731
5787 5773 5791 5805 5807 5806 5801 5793 5780 5763 5739 5727 5737 5741 5749 5770 5784 5796 5797 5794 5790 5789 5787 5782 5776 5770 5766 5762 5758 5754 5749 5745 5743 5741 5739 5737 5736 5735 5735 5733 5732 5732 5731 5730
5787 5770 5776 5788 5783 5784 5788 5783 5778 5768 5758 5738 5721 5727 5759 5763 5782 5790 5794 5794 5790 5787 5783 5779 5776 5772 5767 5763 5758 5753 5749 5746 5743 5742 5739 5738 5735 5735 5733 5732 5731 5731 5730 5728
5785 5774 5762 5773 5794 5800 5792 5782 5775 5752 5746 5750 5738 5738 5772 5776 5784 5792 5793 5792 5790 5788 5785 5781 5777 5771 5767 5763 5758 5754 5750 5747 5744 5743 5740 5737 5735 5733 5731 5730 5730 5729 5728 5727
5777 5762 5743 5746 5763 5778 5777 5779 5777 5771 5760 5750 5736 5738 5772 5775 5780 5787 5790 5788 5788 5786 5784 5780 5775 5770 5766 5763 5759 5754 5751 5748 5746 5743 5740 5737 5734 5732 5730 5729 5729 5727 5727 5726
5777 5757 5746 5733 5738 5748 5754 5765 5769 5762 5752 5750 5747 5744 5755 5763 5768 5776 5784 5786 5784 5783 5780 5778 5773 5769 5766 5763 5759 5756 5753 5750 5747 5744 5740 5736 5734 5732 5730 5729 5728 5727 5726 5725
5769 5750 5750 5753 5754 5752 5752 5756 5761 5757 5756 5751 5755 5755 5754 5759 5765 5770 5778 5783 5781 5779 5777 5774 5771 5767 5765 5762 5760 5758 5755 5752 5749 5744 5740 5737 5735 5733 5731 5729 5727 5726 5725 5724
5758 5744 5744 5741 5748 5748 5746 5755 5760 5760 5761 5764 5762 5758 5767 5764 5769 5772 5778 5780 5778 5777 5776 5774 5771 5767 5764 5762 5760 5758 5755 5753 5750 5745 5741 5739 5736 5733 5730 5728 5727 5725 5724 5724
5745 5735 5727 5726 5736 5735 5730 5749 5756 5760 5767 5764 5753 5756 5764 5761 5763 5770 5778 5779 5778 5778 5777 5774 5771 5768 5766 5764 5762 5758 5756 5753 5749 5745 5742 5739 5736 5733 5730 5730 5727 5725 5723 5722
5734 5726 5723 5721 5721 5704 5739 5762 5763 5761 5763 5766 5761 5763 5764 5763 5766 5774 5778 5777 5777 5779 5778 5776 5773 5770 5768 5766 5763 5761 5757 5753 5748 5745 5742 5739 5736 5733 5731 5729 5727 5724 5723 5721
5738 5725 5717 5711 5706 5716 5739 5754 5757 5749 5745 5756 5755 5758 5761 5766 5767 5768 5776 5779 5778 5779 5779 5778 5776 5773 5769 5766 5763 5760 5756 5752 5748 5745 5743 5741 5738 5734 5731 5728 5726 5724 5722 5720
5730 5725 5713 5709 5699 5699 5721 5747 5759 5747 5726 5743 5749 5750 5754 5757 5743 5749 5769 5773 5774 5776 5777 5776 5776 5773 5768 5765 5763 5758 5755 5752 5749 5747 5745 5743 5740 5736 5732 5730 5727 5725 5722 5720
5706 5704 5702 5701 5698 5706 5728 5743 5746 5718 5714 5736 5741 5742 5745 5743 5742 5751 5762 5766 5769 5770 5771 5772 5771 5768 5766 5765 5761 5756 5754 5752 5752 5750 5747 5744 5741 5738 5734 5731 5728 5725 5722 5719
5696 5694 5694 5697 5689 5692 5722 5727 5717 5715 5729 5732 5733 5736 5737 5738 5743 5748 5751 5755 5760 5763 5764 5764 5763 5763 5763 5762 5758 5753 5751 5753 5753 5750 5747 5743 5741 5739 5736 5731 5727 5724 5720 5717
5690 5690 5692 5690 5691 5704 5713 5712 5715 5720 5721 5724 5725 5730 5731 5731 5734 5739 5743 5747 5751 5755 5756 5756 5757 5756 5757 5757 5755 5750 5750 5751 5750 5747 5744 5742 5739 5737 5736 5731 5726 5722 5719 5716
5684 5692 5687 5684 5690 5698 5703 5707 5711 5714 5715 5718 5720 5722 5724 5723 5727 5730 5735 5739 5742 5746 5747 5749 5749 5748 5748 5750 5750 5750 5749 5748 5745 5742 5740 5739 5736 5734 5732 5729 5726 5721 5718 5715
5669 5676 5675 5674 5681 5689 5693 5697 5701 5705 5709 5709 5711 5714 5715 5717 5719 5723 5726 5730 5733 5737 5739 5741 5740 5740 5741 5743 5743 5745 5745 5744 5740 5738 5736 5734 5733 5731 5728 5725 5723 5720 5718 5717
5665 5666 5665 5664 5673 5676 5680 5689 5694 5694 5697 5699 5700 5703 5707 5710 5711 5716 5719 5723 5726 5728 5730 5732 5732 5733 5734 5735 5735 5737 5739 5737 5734 5731 5730 5730 5729 5727 5725 5720 5716 5713 5712 5710